World > North America > United States > South Dakota > Arpan

Arpan, SD Hourly Weather Conditions

Feedback E-mail the Weather

Quick WX

Arpan, SD Weather Maps

°F °C°F °C
Arpan Weather Map
UTC Time: 11/30/2022, 04:23
Your Time:

Arpan, SD Regional Weather

Expires:202211300500;;040720
ASUS43 KFSD 300410
RWRSD 

WEATHER ROUNDUP FOR SOUTH DAKOTA
NATIONAL WEATHER SERVICE SIOUX FALLS SD
1000 PM CST TUE NOV 29 2022

NOTE: "FAIR" INDICATES FEW OR NO CLOUDS BELOW 12,000 FEET WITH NO
SIGNIFICANT WEATHER AND/OR OBSTRUCTIONS TO VISIBILITY.



SDZ012>016-024>037-041>051-057-063-072>074-300500-
SOUTHWEST AND SOUTH CENTRAL SOUTH DAKOTA
  
CITY           SKY/WX    TMP DP  RH WIND       PRES   REMARKS
RAPID CTY ARPT CLEAR     10   2  69 N15       30.04R WCI  -7          
PIERRE         PTCLDY    18   5  57 NW28G44   30.03R WCI  -1          
CUSTER         CLEAR      5  -3  69 W8        29.88R WCI  -8          
ELLSWORTH AFB  CLEAR     11   0  61 NW14      30.00R WCI  -4          
PHILIP         CLEAR     11   2  67 W9        30.08R WCI  -2          
PINE RIDGE     PTCLDY     8   3  80 W6        30.05R WCI  -2          
SPEARFISH      FAIR      10   1  67 W17G24    30.02R WCI  -7          
WINNER         CLEAR     17   3  54 NW23G29   30.05R WCI  -1          
$$
 

SKY/WX - Weather  TMP - Temperature  DP - Dew Point  RH - Humidity
WIND - Wind Direction/Speed PRES - Barometric Pressure VSB - Visibility
WCI - Wind Chill Index E13G22 Wind - East Wind 13 mph/Gusts of 22 mph

Trending Headlines

Trending Entertainment Headlines

Arpan Radar Loop

Use the map search tool if you want to place a location marker on the radar map...

Arpan Quick Facts

National Two Day Weather Forecast


E-mail the Arpan Weather Forecast

Voice your opinion or tell us about page issues...